User: anonymous   Login
Location: Hurecourt
(47.9030°N, 6.0653°E)
Time: 01:25:13
(UTC+00:00)
Language:

Cosmos 1697 Rocket - Orbit

View from above orbital plane
View from above orbital plane
View from above satellite
View from above satellite

Ground track
Ground track

The orbit data is extracted from the following two-line orbital elements,

1 16182U 85097B   20272.50610215 -.00000120 +00000-0 -36262-4 0  9998
2 16182 071.0037 004.6716 0006156 031.0205 049.5796 14.16256101805742
Epoch (UTC): 28 September 2020 12:08:47
Eccentricity: 0.0006156
inclination: 71.0037°
perigee height: 833 km
apogee height: 842 km
right ascension of ascending node: 4.6716°
argument of perigee: 31.0205°
revolutions per day: 14.16256101
mean anomaly at epoch: 49.5796°
orbit number at epoch: 80574

The dashed part of the orbit path shows where the satellite is in the earth's shadow,  

DLR